Location: Unspecified
(0.0000°N, 0.0000°E)
Time: 17:02:24
(UTC+00:00)

Vanguard 1 Rocket - Visible Passes

Search period start: 18 June 2019 00:00
Search period end: 28 June 2019 00:00
Orbit: 652 x 4224 km, 34.3° (Epoch: 17 June)

Date Brightness Start Highest point End Pass type
(mag) Time Alt. Az. Time Alt. Az. Time Alt. Az.
18 Jun 10.3 02:21:17 11° ESE 02:21:17 11° ESE 02:21:42 10° ESE visible
18 Jun 8.8 04:38:38 26° SW 04:40:58 31° SSW 04:51:13 10° SSE visible
19 Jun 9.1 03:32:04 31° SSE 03:32:04 31° SSE 03:37:50 10° SE visible
19 Jun 11.1 18:48:16 10° NW 18:50:38 11° NW 18:52:46 10° NNW visible
20 Jun 9.3 04:42:46 20° SW 04:44:41 21° SSW 04:52:55 10° SSE visible
21 Jun 9.6 03:36:04 21° SSE 03:36:04 21° SSE 03:39:57 10° SSE visible
22 Jun 9.7 04:46:38 14° SSW 04:48:33 15° SSW 04:54:13 10° SSE visible
23 Jun 10.0 03:39:49 14° SSE 03:39:49 14° SSE 03:41:44 10° SSE visible
24 Jun 10.0 04:51:24 10° SSW 04:52:35 10° S 04:53:51 10° S visible
